#timestamp,LO_Frequency,Hit 
1502038815.9,286046999.9,N
1502038835.7,286047000.4,N
1502038855.5,286046999.7,N
1502038875.4,286047002.3,N
1502038895.2,286047002.4,N
1502038915.0,286047000.1,N
1502038915.9,286047000.1,N
1502038935.8,286047000.1,N
1502038955.6,286047002.4,N
1502038975.4,286047002.7,N
1502038995.3,286047000.9,N
1502039015.1,286047002.8,N
1502039016.0,286047002.8,N
1502039035.8,286046999.8,N
1502039055.7,286047000.3,N
1502039075.5,286047002.0,N
1502039095.3,286047003.9,N
1502039115.2,286047001.4,N
1502039135.9,286047004.0,N
1502039155.7,286047003.9,N
1502039175.5,286047001.6,N
1502039195.4,286047002.1,N
1502039215.2,286047001.5,N
1502039235.0,286047004.0,N
1502039235.9,286047004.0,N
1502039255.8,286047003.9,N
1502039275.6,286046999.8,N
1502039295.4,286047001.5,N
1502039315.3,286047003.9,N
1502039335.1,286047001.3,N
1502039336.0,286047001.3,N
1502039355.8,286047005.8,N
1502039375.7,286047003.3,N
1502039395.5,286047005.0,N
1502039415.3,286047003.1,N
1502039435.2,286047004.2,N
1502039455.9,286047005.5,N
1502039475.7,286047003.4,N
1502039495.5,286047005.9,N
1502039515.4,286047007.2,N
1502039535.2,286047003.0,N
1502039555.0,286047006.0,N
1502039555.9,286047006.0,N
1502039575.8,286047004.9,N
1502039595.6,286047005.2,N
1502039615.4,286047005.2,N
1502039635.3,286047005.4,N
1502039655.1,286047005.5,N
1502039656.0,286047005.5,N
1502039675.8,286047005.1,N
1502039695.7,286047004.9,N
1502039715.5,286047005.4,N
1502039735.3,286047007.3,N
1502039755.1,286047005.6,N
1502039775.9,286047003.4,N
1502039795.7,286047003.9,N
1502039815.5,286047005.5,N
1502039835.4,286047003.4,N
1502039855.2,286047003.0,N
1502039875.0,286047004.8,N
1502039875.9,286047004.8,N
1502039895.8,286047005.4,N
1502039915.6,286047005.3,N
1502039935.4,286047005.8,N
1502039955.3,286047003.6,N
1502039975.1,286047005.8,N
1502039976.0,286047005.8,N
1502039995.8,286047004.9,N
1502040015.7,286047005.2,N
1502040035.5,286047004.8,N
1502040055.3,286047005.5,N
1502040075.2,286047004.9,N
1502040095.9,286047007.0,N
1502040115.7,286047005.5,N
1502040135.6,286047007.1,N
1502040155.4,286047005.9,N
1502040175.2,286047005.8,N
1502040195.0,286047007.2,N
1502040195.9,286047007.2,N
1502040215.8,286047005.4,N
1502040235.6,286047007.0,N
1502040255.4,286047006.6,N
1502040275.3,286047008.3,N
1502040295.1,286047008.3,N
1502040296.0,286047008.3,N
1502040315.8,286047009.0,N
1502040335.7,286047008.8,N
1502040355.5,286047008.7,N
1502040375.3,286047006.2,N
1502040395.2,286047008.7,N
1502040415.9,286047009.2,N
1502040435.7,286047008.4,N
1502040455.5,286047009.1,N
1502040475.4,286047008.9,N
1502040495.2,286047010.4,N
1502040515.0,286047009.8,N
1502040515.9,286047009.8,N
1502040535.8,286047008.2,N
1502040555.6,286047008.0,N
1502040575.4,286047010.0,N
1502040595.3,286047010.3,N
1502040615.1,286047008.7,N
1502040616.0,286047008.7,N
1502040635.8,286047008.1,N
1502040655.7,286047008.3,N
1502040675.5,286047010.2,N
1502040695.3,286047007.9,N
1502040715.2,286047008.7,N
1502040735.9,286047006.2,N
1502040755.7,286047006.4,N
1502040775.5,286047006.1,N
1502040795.4,286047008.2,N
1502040815.2,286047010.0,N
1502040835.0,286047008.9,N
1502040835.9,286047008.9,N
1502040855.8,286047009.5,N
1502040875.6,286047010.1,N
1502040895.4,286047010.3,N
1502040915.3,286047009.4,N
1502040935.1,286047011.7,N
1502040955.8,286047008.0,N
1502040975.7,286047006.2,N
1502040995.5,286047010.4,N
1502041015.3,286047008.4,N
1502041035.2,286047010.8,N
1502041055.9,286047009.6,N
1502041075.7,286047009.2,N
1502041095.5,286047008.7,N
1502041115.4,286047008.9,N
1502041135.2,286047012.4,N
1502041155.0,286047012.3,N
1502041155.9,286047012.3,N
1502041175.8,286047009.6,N
1502041195.6,286047009.5,N
1502041215.4,286047009.9,N
1502041235.3,286047014.0,N
1502041255.1,286047012.8,N
1502041256.0,286047012.8,N
1502041275.8,286047014.0,N
1502041295.7,286047012.3,N
1502041315.5,286047010.5,N
1502041335.3,286047009.6,N
1502041355.2,286047010.1,N
1502041375.9,286047010.1,N
1502041395.7,286047009.7,N
1502041415.5,286047011.8,N
1502041435.4,286047014.0,N
1502041455.2,286047013.8,N
1502041475.0,286047013.7,N
1502041475.9,286047013.7,N
1502041495.8,286047013.8,N
1502041515.6,286047011.7,N
1502041535.4,286047013.4,N
1502041555.3,286047011.5,N
1502041575.1,286047013.7,N
1502041576.0,286047013.7,N
1502041595.8,286047012.6,N
1502041615.7,286047014.8,N
1502041635.5,286047014.9,N
1502041655.3,286047014.9,N
1502041675.2,286047016.7,N
1502041695.9,286047015.4,N
1502041715.7,286047015.4,N
1502041735.5,286047015.5,N
1502041755.4,286047015.4,N
1502041775.2,286047012.5,N
1502041795.0,286047012.7,N
1502041795.9,286047012.7,N
1502041815.8,286047015.3,N
1502041835.6,286047018.5,N
1502041855.4,286047016.0,N
1502041875.3,286047016.9,N
1502041895.1,286047018.5,N
1502041896.0,286047018.5,N
1502041915.8,286047015.9,N
1502041935.7,286047017.2,N
1502041955.5,286047016.4,N
1502041975.3,286047016.9,N
1502041995.2,286047018.2,N
1502042015.9,286047016.6,N
1502042035.7,286047017.0,N
1502042055.6,286047015.0,N
1502042075.4,286047016.5,N
1502042095.2,286047016.5,N
1502042115.0,286047017.4,N
1502042115.9,286047017.4,N
1502042135.8,286047018.3,N
1502042155.6,286047016.6,N
1502042175.4,286047014.3,N
1502042195.3,286047015.1,N
1502042215.1,286047014.8,N
1502042235.8,286047016.7,N
1502042255.7,286047016.4,N
1502042275.5,286047015.7,N
1502042295.3,286047015.7,N
1502042315.2,286047018.2,N
1502042335.9,286047018.5,N
1502042355.7,286047014.4,N
1502042375.5,286047014.2,N
1502042395.4,286047016.6,N
